Regional Weather Roundup
Issued by NWS Memphis, TN

Home | Current Version | Previous Version | Text Only | Print | Product List | Glossary On
Versions: 1 2 3 4 5 6 7 8 9 10 11 12 13 14 15 16 17 18 19 20 21 22 23 24 25 26 27 28 29 30 31 32 33 34 35 36 37 38 39 40 41 42 43 44 45 46 47 48 49 50
000
ASUS44 KMEG 041510
RWRMEG
MEMPHIS CWA HOURLY WEATHER ROUNDUP
NATIONAL WEATHER SERVICE MEMPHIS TN
1000 AM CDT MON MAY 04 2015

...WEST TENNESSEE...

CITY           SKY/WX    TMP DP  RH WIND       PRES   REMARKS
MEMPHIS INTL   MOSUNNY   76  60  57 SW8       30.22R
NWS MEMPHIS      N/A     77 N/A N/A MISG        N/A
JACKSON        MOSUNNY   75  58  55 S7        30.23R
LEXINGTON      SUNNY     73  57  56 SW7       30.24R
DYERSBURG      SUNNY     75  52  43 W6        30.22S
PARIS          SUNNY     73  55  53 SW8       30.23S


...EASTERN ARKANSAS...

CITY           SKY/WX    TMP DP  RH WIND       PRES   REMARKS
JONESBORO      SUNNY     74  61  63 S7        30.18R
WEST MEMPHIS   MOSUNNY   74  61  63 S12       30.20R
BATESVILLE     SUNNY     73  61  64 CALM      30.17R
NEWPORT        SUNNY     76  61  59 SW7       30.19R
WALNUT RIDGE   MOSUNNY   75  59  57 S10       30.17S
BLYTHEVILLE    SUNNY     77  60  55 SW8       30.20R
NW BLYTHEVILLE SUNNY     79  59  50 SW10      30.20R
SEARCY         SUNNY     74  62  66 S6        30.19S
STUTTGART      SUNNY     75  59  57 S8        30.20S
PINE BLUFF     SUNNY     73  60  63 S6        30.20R
MONTICELLO     CLOUDY    69  61  75 SE3       30.21R


...NORTH MISSISSIPPI...

CITY           SKY/WX    TMP DP  RH WIND       PRES   REMARKS
TUPELO         SUNNY     74  52  46 VRB7      30.26R
OXFORD         LGT RAIN  72  55  56 SW6       30.27R
OLIVE BRANCH   MOSUNNY   73  63  68 SW8       30.23R
TUNICA         SUNNY     73  61  64 S9        30.23R
CLARKSDALE     SUNNY     75  61  60 S9        30.23S
CORINTH        SUNNY     75  55  50 SW9       30.25R
GREENWOOD      SUNNY     74  58  57 S5        30.24R
STARKVILLE     FAIR      72  61  68 SE3       30.26S
GOLDEN TRIANGL MOSUNNY   72  57  60 S3        30.27R


...SOUTHEAST MISSOURI...

CITY           SKY/WX    TMP DP  RH WIND       PRES   REMARKS
WEST PLAINS    MOSUNNY   72  57  59 SW8       30.17R
POPLAR BLUFF   MOSUNNY   76  59  55 SW10      30.16R
CAPE GIRARDEAU PTSUNNY   74  59  59 S8        30.17S


...NORTHWEST ALABAMA...

CITY           SKY/WX    TMP DP  RH WIND       PRES   REMARKS
MUSCLE SHOALS  SUNNY     76  57  51 VRB5      30.28R


...MIDDLE TENNESSEE...

CITY           SKY/WX    TMP DP  RH WIND       PRES   REMARKS
NASHVILLE      PTSUNNY   76  53  44 SW7       30.27R
CLARKSVILLE    MOSUNNY   73  55  53 S9        30.23R
COLUMBIA       CLOUDY    73  57  56 SW7       30.26R


...WESTERN KENTUCKY...

CITY           SKY/WX    TMP DP  RH WIND       PRES   REMARKS
PADUCAH        PTSUNNY   75  58  55 SW7       30.19R


...CENTRAL ARKANSAS...

CITY           SKY/WX    TMP DP  RH WIND       PRES   REMARKS
LITTLE ROCK    MOSUNNY   75  59  57 S9        30.18S


SKY/WX REPORTED AS FAIR MEANS FEW OR NO CLOUDS BELOW
12 THOUSAND FEET.




USA.gov is the U.S. government's official web portal to all federal, state and local government web resources and services.